When you browse on this site, cookies collect data to enhance your experience and personalize the content and advertising you see.
Visit our Privacy Policy to learn more. By continuing to use the site, you agree to this use of cookies and data.

Hourly Weather Cannes

Today, 11 August, Tuesday

Time Temperature Precipitation Wind Pressure Humidity
00:00 +27°C° 0 mm 2 mps 761 mmHg 54%
01:00 +27°C° 0 mm 1 mps 760 mmHg 54%
02:00 +26°C° 0 mm 1 mps 760 mmHg 53%
03:00 +26°C° 0 mm 1 mps 760 mmHg 53%
04:00 +27°C° 0 mm 1 mps 760 mmHg 53%
05:00 +27°C° 0 mm 1 mps 760 mmHg 52%
06:00 +28°C° 0 mm 1 mps 761 mmHg 50%
07:00 +30°C° 0 mm 1 mps 761 mmHg 46%
08:00 +32°C° 0 mm 1 mps 761 mmHg 41%
09:00 +35°C° 0 mm 2 mps 761 mmHg 37%
10:00 +35°C° 0 mm 2 mps 761 mmHg 37%
11:00 +36°C° 0 mm 2 mps 761 mmHg 37%
12:00 +36°C° 0 mm 3 mps 761 mmHg 37%
13:00 +36°C° 0 mm 3 mps 761 mmHg 38%
14:00 +36°C° 0 mm 3 mps 760 mmHg 40%
15:00 +35°C° 0 mm 3 mps 760 mmHg 41%
16:00 +34°C° 0 mm 3 mps 760 mmHg 46%
17:00 +33°C° 0 mm 3 mps 760 mmHg 51%
18:00 +30°C° 0 mm 2 mps 760 mmHg 56%
19:00 +29°C° 0 mm 2 mps 760 mmHg 58%
20:00 +28°C° 0 mm 2 mps 761 mmHg 60%
21:00 +27°C° 0 mm 2 mps 761 mmHg 62%
22:00 +27°C° 0 mm 2 mps 761 mmHg 60%
23:00 +27°C° 0 mm 2 mps 761 mmHg 59%

Tomorrow, 12 August, Wednesday

Time Temperature Precipitation Wind Pressure Humidity
00:00 +27°C° 0 mm 1 mps 761 mmHg 58%
01:00 +26°C° 0 mm 1 mps 760 mmHg 58%
02:00 +26°C° 0 mm 1 mps 760 mmHg 58%
03:00 +26°C° 0 mm 1 mps 760 mmHg 57%
04:00 +27°C° 0 mm 1 mps 760 mmHg 57%
05:00 +27°C° 0 mm 1 mps 760 mmHg 56%
06:00 +28°C° 0 mm 1 mps 761 mmHg 56%
07:00 +30°C° 0 mm 2 mps 761 mmHg 52%
08:00 +32°C° 0 mm 2 mps 761 mmHg 47%
09:00 +34°C° 0 mm 2 mps 761 mmHg 43%
10:00 +35°C° 0 mm 2 mps 761 mmHg 43%
11:00 +35°C° 0 mm 2 mps 761 mmHg 42%
12:00 +36°C° 0 mm 3 mps 761 mmHg 42%
13:00 +36°C° 0 mm 2 mps 761 mmHg 43%
14:00 +35°C° 0 mm 2 mps 761 mmHg 44%
15:00 +35°C° 0 mm 2 mps 761 mmHg 45%
16:00 +34°C° 0 mm 2 mps 761 mmHg 50%
17:00 +31°C° 0 mm 1 mps 760 mmHg 55%
18:00 +30°C° 0 mm 1 mps 760 mmHg 60%
19:00 +29°C° 0 mm 1 mps 760 mmHg 63%
20:00 +28°C° 0 mm 1 mps 761 mmHg 67%
21:00 +27°C° 0 mm 1 mps 761 mmHg 70%
22:00 +26°C° 0 mm 1 mps 761 mmHg 68%
23:00 +26°C° 0 mm 1 mps 761 mmHg 65%

Day after tomorrow, 13 August, Thursday

Time Temperature Precipitation Wind Pressure Humidity
00:00 +26°C° 0 mm 1 mps 761 mmHg 63%
01:00 +26°C° 0 mm 1 mps 761 mmHg 61%
02:00 +26°C° 0 mm 1 mps 761 mmHg 60%
03:00 +26°C° 0 mm 1 mps 761 mmHg 58%
04:00 +27°C° 0 mm 2 mps 761 mmHg 58%
05:00 +27°C° 0 mm 2 mps 761 mmHg 59%
06:00 +27°C° 0 mm 2 mps 761 mmHg 59%
07:00 +29°C° 0 mm 3 mps 761 mmHg 56%
08:00 +31°C° 0 mm 3 mps 761 mmHg 52%
09:00 +33°C° 0 mm 3 mps 761 mmHg 49%
10:00 +34°C° 0 mm 3 mps 760 mmHg 47%
11:00 +34°C° 0 mm 3 mps 760 mmHg 44%
12:00 +35°C° 0 mm 4 mps 760 mmHg 42%
13:00 +35°C° 0 mm 3 mps 760 mmHg 42%
14:00 +35°C° 0 mm 3 mps 759 mmHg 43%
15:00 +34°C° 0 mm 2 mps 759 mmHg 44%
16:00 +32°C° 0 mm 2 mps 759 mmHg 51%
17:00 +31°C° 0 mm 1 mps 759 mmHg 58%
18:00 +29°C° 0 mm 1 mps 759 mmHg 65%
19:00 +28°C° 0 mm 1 mps 759 mmHg 68%
20:00 +27°C° 0 mm 1 mps 759 mmHg 71%
21:00 +26°C° 0 mm 1 mps 759 mmHg 74%
22:00 +26°C° 0 mm 2 mps 759 mmHg 72%
23:00 +26°C° 0 mm 2 mps 759 mmHg 70%

14 August, Friday

Time Temperature Precipitation Wind Pressure Humidity
00:00 +26°C° 0 mm 2 mps 759 mmHg 68%
01:00 +25°C° 0 mm 2 mps 759 mmHg 68%
02:00 +25°C° 0 mm 2 mps 759 mmHg 68%
03:00 +25°C° 0 mm 2 mps 759 mmHg 68%
04:00 +25°C° 0 mm 2 mps 759 mmHg 65%
05:00 +26°C° 0 mm 2 mps 759 mmHg 63%
06:00 +26°C° 0 mm 2 mps 759 mmHg 60%
07:00 +29°C° 0 mm 2 mps 759 mmHg 53%
08:00 +31°C° 0 mm 3 mps 759 mmHg 45%
09:00 +34°C° 0 mm 3 mps 759 mmHg 38%
10:00 +35°C° 0 mm 3 mps 758 mmHg 39%
11:00 +35°C° 0 mm 3 mps 758 mmHg 40%
12:00 +35°C° 0 mm 3 mps 758 mmHg 41%
13:00 +35°C° 0 mm 3 mps 758 mmHg 41%
14:00 +35°C° 0 mm 3 mps 758 mmHg 41%
15:00 +35°C° 0 mm 3 mps 757 mmHg 41%
16:00 +34°C° 0 mm 3 mps 757 mmHg 44%
17:00 +32°C° 0 mm 2 mps 757 mmHg 47%
18:00 +30°C° 0 mm 2 mps 757 mmHg 50%
19:00 +29°C° 0 mm 2 mps 758 mmHg 50%
20:00 +27°C° 0 mm 2 mps 758 mmHg 50%
21:00 +26°C° 0 mm 2 mps 758 mmHg 50%
22:00 +26°C° 0 mm 2 mps 758 mmHg 50%
23:00 +25°C° 0 mm 2 mps 758 mmHg 51%

15 August, Saturday

Time Temperature Precipitation Wind Pressure Humidity
00:00 +25°C° 0 mm 1 mps 758 mmHg 52%
01:00 +25°C° 0 mm 1 mps 758 mmHg 53%
02:00 +24°C° 0 mm 1 mps 758 mmHg 54%
03:00 +24°C° 0 mm 1 mps 758 mmHg 54%
04:00 +25°C° 0 mm 1 mps 758 mmHg 54%
05:00 +25°C° 0 mm 1 mps 758 mmHg 53%
06:00 +26°C° 0 mm 1 mps 758 mmHg 53%
07:00 +28°C° 0 mm 2 mps 758 mmHg 51%
08:00 +30°C° 0 mm 2 mps 758 mmHg 48%
09:00 +32°C° 0 mm 2 mps 758 mmHg 46%
10:00 +34°C° 0 mm 3 mps 758 mmHg 47%
11:00 +34°C° 0 mm 3 mps 758 mmHg 49%
12:00 +35°C° 0 mm 3 mps 758 mmHg 51%
13:00 +34°C° 0.1 mm 3 mps 758 mmHg 52%
14:00 +34°C° 0.1 mm 2 mps 758 mmHg 54%
15:00 +32°C° 0.1 mm 2 mps 757 mmHg 56%
16:00 +31°C° 0 mm 2 mps 757 mmHg 61%
17:00 +30°C° 0 mm 2 mps 757 mmHg 65%
18:00 +29°C° 0 mm 1 mps 757 mmHg 70%
19:00 +28°C° 0 mm 1 mps 758 mmHg 70%
20:00 +27°C° 0 mm 1 mps 758 mmHg 70%
21:00 +26°C° 0 mm 1 mps 758 mmHg 70%
22:00 +26°C° 0 mm 1 mps 758 mmHg 65%
23:00 +25°C° 0 mm 1 mps 758 mmHg 60%

16 August, Sunday

Time Temperature Precipitation Wind Pressure Humidity
00:00 +25°C° 0 mm 1 mps 758 mmHg 55%
01:00 +25°C° 0 mm 1 mps 758 mmHg 54%
02:00 +25°C° 0 mm 1 mps 758 mmHg 52%
03:00 +25°C° 0 mm 1 mps 758 mmHg 51%
04:00 +25°C° 0 mm 1 mps 758 mmHg 51%
05:00 +26°C° 0 mm 1 mps 758 mmHg 52%
06:00 +26°C° 0 mm 2 mps 758 mmHg 52%
07:00 +28°C° 0 mm 2 mps 758 mmHg 50%
08:00 +30°C° 0 mm 2 mps 758 mmHg 49%
09:00 +33°C° 0 mm 3 mps 759 mmHg 47%
10:00 +34°C° 0 mm 3 mps 759 mmHg 47%
11:00 +34°C° 0 mm 3 mps 758 mmHg 47%
12:00 +35°C° 0 mm 3 mps 758 mmHg 47%
13:00 +35°C° 0 mm 2 mps 758 mmHg 48%
14:00 +34°C° 0 mm 2 mps 758 mmHg 48%
15:00 +34°C° 0 mm 2 mps 758 mmHg 48%
16:00 +32°C° 0 mm 1 mps 758 mmHg 53%
17:00 +31°C° 0 mm 1 mps 758 mmHg 58%
18:00 +29°C° 0 mm 1 mps 758 mmHg 63%
19:00 +29°C° 0 mm 2 mps 758 mmHg 66%
20:00 +28°C° 0 mm 2 mps 758 mmHg 69%
21:00 +27°C° 0 mm 2 mps 759 mmHg 72%
22:00 +26°C° 0 mm 2 mps 759 mmHg 72%
23:00 +26°C° 0 mm 2 mps 759 mmHg 72%
Show more